カタログに戻る

SL-8 R/B

運用中PO
NORAD 7769·ROCKET BODY·🇷🇺 Russia

打ち上げ Apr 22, 1975 から Plesetsk Cosmodrome

Loading…

次のパス (今後24時間)

TLE

最新Source: Space-Track

元期: Sep 14, 2026, 08:02 UTC

1 07769U 75034B   26257.33484198  .00000090  00000-0  77733-4 0  9990
2 07769  82.9637  28.7139 0019485 134.1545 253.8363 13.75191909577965

AllMySatでSL-8 R/Bをリアルタイム追跡

Download on the App Store